Terminal Aerodrome Forecast
Issued by NWS

Current Version | Previous Version | Graphics & Text | Print | Product List | Glossary On
Versions: 1 2 3 4 5 6 7 8 9 10 11 12 13 14 15 16 17 18 19 20 21 22 23 24 25
000
FTUS41 KILN 251727 AAA
TAFLUK
TAF AMD
KLUK 251727Z 2517/2612 19012KT P6SM BKN130
     FM260000 15005KT P6SM VCSH BKN120
     FM260400 14005KT P6SM -SHRA BKN090
     FM260900 16005KT 5SM -SHRA OVC050=

USA.gov is the U.S. government's official web portal to all federal, state and local government web resources and services.